TimePST,TemperatureF,Dew PointF,Humidity,Sea Level PressureIn,VisibilityMPH,Wind Direction,Wind SpeedMPH,Gust SpeedMPH,PrecipitationIn,Events,Conditions,WindDirDegrees,DateUTC
12:53 AM,27.0,25.0,92,30.45,6.0,Calm,Calm,-,N/A,,Clear,0,2013-01-30 08:53:00
1:53 AM,28.0,27.0,96,30.44,10.0,Calm,Calm,-,N/A,,Clear,0,2013-01-30 09:53:00
2:53 AM,28.0,27.0,96,30.45,10.0,Calm,Calm,-,N/A,,Clear,0,2013-01-30 10:53:00
3:53 AM,28.0,26.1,92,30.44,10.0,Calm,Calm,-,N/A,,Clear,0,2013-01-30 11:53:00
4:53 AM,26.1,24.1,92,30.47,5.0,Calm,Calm,-,N/A,,Clear,0,2013-01-30 12:53:00
5:53 AM,26.1,25.0,96,30.48,5.0,Calm,Calm,-,N/A,,Clear,0,2013-01-30 13:53:00
6:01 AM,26.6,24.8,93,30.43,7.0,Calm,Calm,-,N/A,,Overcast,0,2013-01-30 14:01:00
6:53 AM,25.0,24.1,96,30.52,7.0,Calm,Calm,-,N/A,,Overcast,0,2013-01-30 14:53:00
7:26 AM,24.8,24.8,100,30.44,0.5,Calm,Calm,-,N/A,Fog,Light Freezing Fog,0,2013-01-30 15:26:00
7:53 AM,26.1,25.0,96,30.52,0.2,Calm,Calm,-,N/A,Fog,Light Freezing Fog,0,2013-01-30 15:53:00
8:37 AM,28.4,26.6,93,30.46,0.5,Calm,Calm,-,N/A,Fog,Light Freezing Fog,0,2013-01-30 16:37:00
8:53 AM,28.9,28.0,96,30.52,3.0,Calm,Calm,-,N/A,,Overcast,0,2013-01-30 16:53:00
9:53 AM,30.9,30.9,100,30.53,3.0,Calm,Calm,-,N/A,,Overcast,0,2013-01-30 17:53:00
10:30 AM,32.0,32.0,100,30.46,0.8,Calm,Calm,-,N/A,,Overcast,0,2013-01-30 18:30:00
10:53 AM,32.0,32.0,100,30.53,0.8,Calm,Calm,-,N/A,,Overcast,0,2013-01-30 18:53:00
11:11 AM,32.0,32.0,100,30.45,3.0,Calm,Calm,-,N/A,,Mostly Cloudy,0,2013-01-30 19:11:00
11:53 AM,36.0,33.1,89,30.50,10.0,Calm,Calm,-,N/A,,Mostly Cloudy,0,2013-01-30 19:53:00
12:00 PM,35.6,33.8,93,30.44,10.0,Calm,Calm,-,N/A,,Mostly Cloudy,0,2013-01-30 20:00:00
12:53 PM,41.0,30.9,67,30.46,10.0,Calm,Calm,-,N/A,,Mostly Cloudy,0,2013-01-30 20:53:00
1:53 PM,44.1,32.0,63,30.42,10.0,SSW,4.6,-,N/A,,Mostly Cloudy,210,2013-01-30 21:53:00
2:53 PM,45.0,30.0,56,30.42,10.0,WNW,3.5,-,N/A,,Scattered Clouds,290,2013-01-30 22:53:00
3:53 PM,45.0,33.1,63,30.41,10.0,Calm,Calm,-,N/A,,Scattered Clouds,0,2013-01-30 23:53:00
4:53 PM,44.1,32.0,63,30.42,10.0,Calm,Calm,-,N/A,,Partly Cloudy,0,2013-01-31 00:53:00
5:53 PM,37.0,32.0,82,30.43,10.0,Calm,Calm,-,N/A,,Partly Cloudy,0,2013-01-31 01:53:00
6:53 PM,33.1,30.0,89,30.45,10.0,Calm,Calm,-,N/A,,Partly Cloudy,0,2013-01-31 02:53:00
7:53 PM,32.0,28.9,88,30.45,10.0,West,3.5,-,N/A,,Partly Cloudy,280,2013-01-31 03:53:00
8:53 PM,28.9,27.0,92,30.45,10.0,Calm,Calm,-,N/A,,Partly Cloudy,0,2013-01-31 04:53:00
9:53 PM,28.9,26.1,89,30.45,10.0,Calm,Calm,-,N/A,,Partly Cloudy,0,2013-01-31 05:53:00
10:53 PM,28.0,26.1,92,30.45,10.0,Calm,Calm,-,N/A,,Clear,0,2013-01-31 06:53:00
11:53 PM,27.0,25.0,92,30.43,7.0,Calm,Calm,-,N/A,,Clear,0,2013-01-31 07:53:00